Simultaneous Nadir Overpasses (SNOs) Predictions

Prediction of SNOs between GOES-15 and NOAA-20 Satellite Orbit:

Table of predicted SNOs for the next 14.0 days since TLE Epoch: 8/13/2022
Index Date Time (GOES-15) GOES-15 Lat,Lon NOAA-20 Lat,Lon Distance(km) Time Diff (sec)
1 08/13/2022 10:07:37 0.39,-128.07 0.88,-130.18 240.43 80
2 08/14/2022 09:46:11 0.38,-128.07 -0.14,-125.65 275.89 80
3 08/15/2022 22:08:07 -0.39,-128.06 -1.02,-130.95 328.99 80
4 08/16/2022 21:52:01 -0.39,-128.06 0.00,-126.42 188.09 80
5 08/18/2022 10:13:47 0.40,-128.09 1.18,-131.68 409.21 80
6 08/19/2022 09:52:22 0.39,-128.08 0.16,-127.15 106.67 80
7 08/21/2022 21:58:11 -0.39,-128.05 -0.35,-127.91 15.68 80
8 08/24/2022 10:01:12 0.38,-128.06 0.51,-128.65 66.29 80
9 08/25/2022 09:39:46 0.37,-128.05 -0.52,-124.11 448.94 80
10 08/26/2022 22:01:40 -0.38,-128.00 -0.69,-129.41 159.88 80
